Starlink 5699

operational
NORAD ID: 55449 Int'l Des: 2023-015 Owner: SPXS Country: US Constellation: starlink
LEOCIRCULAR

About Starlink 5699

Description loading...

Live Position

Loading 3D Globe...

Upcoming Passes

Altitude History

Altitude vs Time

uPlot chart will show altitude changes over time

Two-Line Element Set

1 55449U 23015A 25304.02264212 .00001349 00000-0 11488-3 0 9993
2 55449 43.0036 311.0015 0001117 266.7635 93.3080 15.02547118152185
Epoch: Oct 31, 2025 • Age: 13 hours

Current Status

Altitude 558.3 km
Velocity 7.58 km/s
Sub-Earth Point 10.93°N, 79.21°E
Launch Date Feb 2, 2023
Age 2.7 years
Type internet

Technical Details

Classification Payload
Mass 305.00 kg
Dry Mass 290.00 kg
Total Mass 305.00 kg
Length 0.20 m
Diameter 2.80 m
Span 9.00 m
Shape Box + pan
Manufacturer SPXS
Bus Type Starlink
Phase Status In Orbit
Owner/State SPXS/US

Large Constellations

Loading constellations...